Regional Weather Roundup
Issued by NWS

Home | Current Version | Previous Version | Text Only | Print | Product List | Glossary Off
Versions: 1 2 3 4 5 6 7 8 9 10 11 12 13 14 15 16 17 18 19 20 21 22 23 24 25 26 27 28 29 30 31 32 33 34 35 36 37 38 39 40 41 42 43 44 45 46 47 48 49 50

000
ASUS43 KBIS 230010
RWRND

NORTH DAKOTA REGIONAL WEATHER ROUNDUP
NATIONAL WEATHER SERVICE BISMARCK ND
600 PM CST SAT NOV 22 2014

NOTE: "FAIR" INDICATES FEW OR NO CLOUDS BELOW 12,000 FEET WITH NO
SIGNIFICANT WEATHER AND/OR OBSTRUCTIONS TO VISIBILITY.


NDZ001>003-009>011-017-230100-
NORTHWEST NORTH DAKOTA

CITY           SKY/WX    TMP DP  RH WIND       PRES   REMARKS
WILLISTON      CLEAR     35  30  82 S6        29.27R
6HR MIN TEMP:  35; 6HR MAX TEMP:  43; 6HR PCP: TRACE;

MINOT          CLOUDY    42  30  62 S7        29.24F
MINOT AFB      CLOUDY    37  30  74 S6        29.23F
$$

NDZ018>021-031>035-040>046-230100-
SOUTHWEST NORTH DAKOTA

CITY           SKY/WX    TMP DP  RH WIND       PRES   REMARKS
BISMARCK       CLOUDY    38  31  76 CALM      29.35S
6HR MIN TEMP:  38; 6HR MAX TEMP:  46; 6HR PCP: TRACE;

DICKINSON      PTCLDY    35  33  92 S6        29.31R
GARRISON         N/A     40  32  73 SE5       29.26F
6HR MIN TEMP:  38; 6HR MAX TEMP:  44;

HETTINGER ARPT CLOUDY    36  32  85 W3        29.38R
$$

NDZ004>008-012>016-024-026-027-054-230100-
NORTHEAST NORTH DAKOTA

CITY           SKY/WX    TMP DP  RH WIND       PRES   REMARKS
GRAND FORKS    CLOUDY    36  30  79 SE6       29.42F
GRND FRKS AFB  CLOUDY    36  31  85 E5        29.41F
DEVILS LAKE    CLOUDY    37  27  65 SE10      29.34R
$$

NDZ022-023-025-028>030-036>039-047>053-230100-
SOUTHEAST NORTH DAKOTA

CITY           SKY/WX    TMP DP  RH WIND       PRES   REMARKS
FARGO          PTCLDY    38  30  73 S14       29.44R
6HR MIN TEMP:  38; 6HR MAX TEMP:  46;

JAMESTOWN      CLOUDY    33  27  78 S8        29.36S
$$



USA.gov is the U.S. government's official web portal to all federal, state and local government web resources and services.